Date String (YYYY-MM-DD hh:mm:ss) UTC,Instrument flags,Ambient pressure (hPa),Sample flow (lpm),Bypass flow (lpm),Sample temperature (°C),Ambient temperature (°C),ASC tube jacket temperature (°C),LED temperature (°C),Box temperature (°C),Sample RH (%),Span deviation,Mass concentration (μg/m³),Mass concentration (μg/m³),Mass concentration (μg/m³)
DateTimeUTC,F1_M11,P_M11,Q1_M11,Q2_M11,T1_M11,T2_M11,T3_M11,T4_M11,T5_M11,U1_M11,ZSPAN_M11,X0_M11,X2_M11,X1_M11
2023-01-22 00:00:00,,0825.4,5.01,0.00,21.1,19.2,00.0,30.0,22.6,14.8,0000.0,0008.42,0005.42,0005.11
2023-01-22 00:01:00,,0825.4,4.98,0.00,21.1,18.9,00.0,30.0,22.5,14.9,0000.0,0008.42,0005.45,0005.13
2023-01-22 00:02:00,,0825.4,5.00,0.00,21.0,18.8,00.0,30.0,22.5,14.9,0000.0,0008.53,0005.48,0005.16
2023-01-22 00:03:00,,0825.5,4.99,0.00,21.0,18.6,00.0,30.0,22.4,15.0,0000.0,0008.66,0005.50,0005.18
2023-01-22 00:04:00,,0825.4,5.01,0.00,20.9,18.5,00.0,29.9,22.3,15.1,0000.0,0008.49,0005.51,0005.21
2023-01-22 00:05:00,,0825.5,5.00,0.00,20.8,18.4,00.0,29.9,22.2,15.1,0000.0,0008.32,0005.56,0005.24
2023-01-22 00:06:00,,0825.5,5.00,0.00,20.8,19.0,00.0,29.8,22.3,15.2,0000.0,0008.40,0005.61,0005.27
2023-01-22 00:07:00,,0825.4,5.00,0.00,20.9,20.5,00.0,29.8,22.6,15.1,0000.0,0008.59,0005.64,0005.30
2023-01-22 00:08:00,,0825.4,5.00,0.00,21.1,21.7,00.0,29.8,23.0,15.0,0000.0,0008.97,0005.67,0005.31
2023-01-22 00:09:00,,0825.4,4.99,0.00,21.2,22.1,00.0,29.9,23.2,14.9,0000.0,0009.13,0005.68,0005.33
2023-01-22 00:10:00,,0825.4,5.00,0.00,21.3,21.3,00.0,29.9,23.1,14.9,0000.0,0009.78,0005.66,0005.34
2023-01-22 00:11:00,,0825.3,5.02,0.00,21.2,20.6,00.0,30.0,22.9,14.9,0000.0,0009.91,0005.68,0005.36
2023-01-22 00:12:00,,0825.4,4.99,0.00,21.2,20.0,00.0,30.0,22.8,14.9,0000.0,0010.16,0005.70,0005.38
2023-01-22 00:13:00,,0825.4,5.00,0.00,21.1,19.5,00.0,30.0,22.6,15.0,0000.0,0010.72,0005.71,0005.38
2023-01-22 00:14:00,,0825.3,5.00,0.00,21.1,19.1,00.0,30.0,22.5,15.0,0000.0,0011.03,0005.72,0005.39
2023-01-22 00:15:00,,0825.3,5.01,0.00,21.0,18.9,00.0,29.9,22.4,15.0,0000.0,0011.15,0005.70,0005.38
2023-01-22 00:16:00,,0825.4,5.00,0.00,20.9,18.7,00.0,29.9,22.3,15.1,0000.0,0011.06,0005.65,0005.37
2023-01-22 00:17:00,,0825.3,4.99,0.00,20.9,18.5,00.0,29.9,22.2,15.1,0000.0,0011.29,0005.60,0005.34
2023-01-22 00:18:00,,0825.3,5.00,0.00,20.8,18.3,00.0,29.8,22.1,15.1,0000.0,0011.25,0005.58,0005.32
2023-01-22 00:19:00,,0825.2,5.00,0.00,20.7,18.2,00.0,29.8,22.0,15.2,0000.0,0010.84,0005.54,0005.29
2023-01-22 00:20:00,,0825.2,5.01,0.00,20.7,19.1,00.0,29.7,22.2,15.2,0000.0,0010.75,0005.50,0005.26
2023-01-22 00:21:00,,0825.3,5.00,0.00,20.9,20.6,00.0,29.7,22.6,15.1,0000.0,0009.96,0005.48,0005.23
2023-01-22 00:22:00,,0825.2,5.00,0.00,21.0,21.5,00.0,29.7,22.9,15.0,0000.0,0009.74,0005.44,0005.19
2023-01-22 00:23:00,,0825.2,4.98,0.00,21.0,21.0,00.0,29.8,22.8,14.9,0000.0,0009.49,0005.42,0005.15
2023-01-22 00:24:00,,0825.2,5.01,0.00,21.0,20.2,00.0,29.8,22.7,14.9,0000.0,0008.88,0005.39,0005.13
2023-01-22 00:25:00,,0825.2,5.00,0.00,21.0,19.6,00.0,29.8,22.5,15.0,0000.0,0008.45,0005.36,0005.11
2023-01-22 00:26:00,,0825.2,5.00,0.00,20.9,19.1,00.0,29.8,22.3,15.0,0000.0,0008.27,0005.33,0005.08
2023-01-22 00:27:00,,0825.2,5.00,0.00,20.8,18.6,00.0,29.8,22.2,15.1,0000.0,0008.23,0005.31,0005.06
2023-01-22 00:28:00,,0825.1,4.99,0.00,20.7,18.3,00.0,29.7,22.0,15.1,0000.0,0007.88,0005.29,0005.03
2023-01-22 00:29:00,,0825.1,5.02,0.00,20.6,18.1,00.0,29.7,21.9,15.2,0000.0,0007.79,0005.26,0005.00
2023-01-22 00:30:00,,0825.2,5.04,0.00,20.6,18.8,00.0,29.7,22.0,15.2,0000.0,0007.80,0005.25,0004.99
2023-01-22 00:31:00,,0825.2,5.00,0.00,20.7,20.3,00.0,29.6,22.4,15.1,0000.0,0007.75,0005.22,0004.98
2023-01-22 00:32:00,,0825.2,5.00,0.00,20.9,21.5,00.0,29.6,22.8,14.9,0000.0,0007.75,0005.22,0004.98
2023-01-22 00:33:00,,0825.1,4.99,0.00,21.0,22.0,00.0,29.7,23.0,14.8,0000.0,0007.81,0005.22,0004.97
2023-01-22 00:34:00,,0825.1,4.99,0.00,21.1,21.1,00.0,29.7,22.9,14.7,0000.0,0007.77,0005.20,0004.96
2023-01-22 00:35:00,,0825.1,5.02,0.00,21.0,20.3,00.0,29.8,22.6,14.7,0000.0,0007.76,0005.17,0004.94
2023-01-22 00:36:00,,0825.1,5.00,0.00,21.0,19.6,00.0,29.8,22.4,14.7,0000.0,0007.83,0005.19,0004.93
2023-01-22 00:37:00,,0825.1,5.00,0.00,20.9,19.1,00.0,29.8,22.3,14.8,0000.0,0007.93,0005.24,0004.93
2023-01-22 00:38:00,,0825.0,4.99,0.00,20.8,18.8,00.0,29.8,22.2,14.8,0000.0,0007.97,0005.25,0004.93
2023-01-22 00:39:00,,0825.0,5.00,0.00,20.7,18.5,00.0,29.7,22.1,14.8,0000.0,0008.00,0005.25,0004.92
2023-01-22 00:40:00,,0825.0,5.00,0.00,20.7,18.2,00.0,29.7,22.0,14.8,0000.0,0008.02,0005.25,0004.91
2023-01-22 00:41:00,,0825.1,5.00,0.00,20.6,18.0,00.0,29.6,21.9,14.9,0000.0,0008.08,0005.26,0004.90
2023-01-22 00:42:00,,0825.1,5.00,0.00,20.6,19.2,00.0,29.6,22.1,14.9,0000.0,0008.16,0005.28,0004.90
2023-01-22 00:43:00,,0825.1,4.99,0.00,20.7,20.7,00.0,29.6,22.5,14.8,0000.0,0008.14,0005.25,0004.87
2023-01-22 00:44:00,,0825.0,5.00,0.00,20.9,21.8,00.0,29.6,22.8,14.6,0000.0,0008.11,0005.23,0004.86
2023-01-22 00:45:00,,0825.0,4.99,0.00,21.0,21.7,00.0,29.7,22.9,14.5,0000.0,0008.15,0005.24,0004.85
2023-01-22 00:46:00,,0824.9,5.00,0.00,21.0,20.8,00.0,29.7,22.7,14.4,0000.0,0008.25,0005.25,0004.83
2023-01-22 00:47:00,,0824.9,5.00,0.00,20.9,19.9,00.0,29.7,22.5,14.5,0000.0,0008.12,0005.20,0004.83
2023-01-22 00:48:00,,0824.9,5.01,0.00,20.8,19.3,00.0,29.7,22.2,14.5,0000.0,0008.06,0005.18,0004.84
2023-01-22 00:49:00,,0825.0,5.01,0.00,20.8,18.8,00.0,29.7,22.1,14.5,0000.0,0008.01,0005.16,0004.84
2023-01-22 00:50:00,,0824.9,5.01,0.00,20.7,18.5,00.0,29.7,22.0,14.5,0000.0,0008.10,0005.18,0004.85
2023-01-22 00:51:00,,0824.9,4.99,0.00,20.6,18.2,00.0,29.6,21.9,14.6,0000.0,0008.09,0005.18,0004.87
2023-01-22 00:52:00,,0824.9,4.99,0.00,20.5,18.0,00.0,29.6,21.8,14.6,0000.0,0007.99,0005.15,0004.86
2023-01-22 00:53:00,,0824.9,5.02,0.00,20.5,18.8,00.0,29.6,21.9,14.6,0000.0,0008.65,0005.15,0004.87
2023-01-22 00:54:00,,0825.0,5.00,0.00,20.7,20.3,00.0,29.5,22.3,14.5,0000.0,0008.75,0005.18,0004.90
2023-01-22 00:55:00,,0824.9,5.00,0.00,20.8,21.5,00.0,29.6,22.7,14.4,0000.0,0009.31,0005.18,0004.91
2023-01-22 00:56:00,,0824.9,4.99,0.00,20.9,21.8,00.0,29.6,22.8,14.3,0000.0,0009.72,0005.19,0004.94
2023-01-22 00:57:00,,0824.9,5.00,0.00,20.9,20.9,00.0,29.7,22.7,14.2,0000.0,0009.77,0005.21,0004.97
2023-01-22 00:58:00,,0824.9,5.00,0.00,20.9,20.0,00.0,29.7,22.4,14.3,0000.0,0009.83,0005.25,0005.00
2023-01-22 00:59:00,,0824.8,5.00,0.00,20.8,19.3,00.0,29.7,22.2,14.3,0000.0,0009.77,0005.23,0005.01
